Time,TemperatureF,DewpointF,PressureIn,WindDirection,WindDirectionDegrees,WindSpeedMPH,WindSpeedGustMPH,Humidity,HourlyPrecipIn,Conditions,Clouds,dailyrainin,SoftwareType,DateUTC
2013-09-03 00:01:00,77.1,73.3,29.89,SSW,203,0.0,0.0,88,0.00,,---,0.00,VWS V14.01,2013-09-03 04:01:00,
2013-09-03 00:02:00,77.1,73.3,29.88,SSW,203,0.0,0.0,88,0.00,,---,0.00,VWS V14.01,2013-09-03 04:02:00,
2013-09-03 00:03:00,77.1,73.3,29.88,SSW,203,0.0,0.0,88,0.00,,---,0.00,VWS V14.01,2013-09-03 04:03:00,
2013-09-03 00:05:00,77.1,73.3,29.88,SSW,203,0.0,0.0,88,0.00,,---,0.00,VWS V14.01,2013-09-03 04:05:00,
2013-09-03 00:10:00,77.0,73.2,29.88,SW,216,0.0,0.0,88,0.00,,---,0.00,VWS V14.01,2013-09-03 04:10:00,
2013-09-03 00:15:00,77.0,73.2,29.89,WSW,243,0.0,0.0,88,0.00,,---,0.00,VWS V14.01,2013-09-03 04:15:00,
2013-09-03 00:20:00,76.9,72.7,29.89,SW,225,0.0,0.0,87,0.00,,---,0.00,VWS V14.01,2013-09-03 04:20:00,
2013-09-03 00:25:00,76.9,72.7,29.89,SW,232,0.0,0.0,87,0.00,,---,0.00,VWS V14.01,2013-09-03 04:25:00,
2013-09-03 00:30:00,76.8,72.6,29.89,SW,236,0.0,0.0,87,0.00,,---,0.00,VWS V14.01,2013-09-03 04:30:00,
2013-09-03 00:35:00,76.7,72.9,29.89,SW,219,0.0,0.0,88,0.00,,---,0.00,VWS V14.01,2013-09-03 04:35:00,
2013-09-03 00:40:00,76.6,72.8,29.89,WSW,245,0.0,0.0,88,0.00,,---,0.00,VWS V14.01,2013-09-03 04:40:00,
2013-09-03 00:45:00,76.4,72.6,29.88,West,267,0.0,0.0,88,0.00,,---,0.00,VWS V14.01,2013-09-03 04:45:00,
2013-09-03 00:50:00,76.2,72.4,29.89,West,267,0.0,0.0,88,0.00,,---,0.00,VWS V14.01,2013-09-03 04:50:00,
2013-09-03 00:56:00,76.1,72.3,29.88,WSW,237,0.0,0.0,88,0.00,,---,0.00,VWS V14.01,2013-09-03 04:56:00,
2013-09-03 01:01:00,76.0,72.5,29.89,WSW,237,0.0,0.0,89,0.00,,---,0.00,VWS V14.01,2013-09-03 05:01:00,
2013-09-03 01:06:00,75.8,72.3,29.89,WSW,237,0.0,0.0,89,0.00,,---,0.00,VWS V14.01,2013-09-03 05:06:00,
2013-09-03 01:11:00,75.7,72.2,29.88,WSW,237,0.0,0.0,89,0.00,,---,0.00,VWS V14.01,2013-09-03 05:11:00,
2013-09-03 01:16:00,75.6,72.5,29.89,SW,236,0.0,0.0,90,0.00,,---,0.00,VWS V14.01,2013-09-03 05:16:00,
2013-09-03 01:21:00,75.6,72.5,29.88,SW,229,0.0,0.0,90,0.00,,---,0.00,VWS V14.01,2013-09-03 05:21:00,
2013-09-03 01:26:00,75.5,72.4,29.88,SW,229,0.0,0.0,90,0.00,,---,0.00,VWS V14.01,2013-09-03 05:26:00,
2013-09-03 01:31:00,75.4,72.3,29.88,SW,229,0.0,0.0,90,0.00,,---,0.00,VWS V14.01,2013-09-03 05:31:00,
2013-09-03 01:36:00,75.4,72.3,29.88,SW,229,0.0,0.0,90,0.00,,---,0.00,VWS V14.01,2013-09-03 05:36:00,
2013-09-03 01:41:00,75.4,72.3,29.88,SW,229,0.0,0.0,90,0.00,,---,0.00,VWS V14.01,2013-09-03 05:41:00,
2013-09-03 01:47:00,75.4,72.3,29.88,SW,229,0.0,0.0,90,0.00,,---,0.00,VWS V14.01,2013-09-03 05:47:00,
2013-09-03 01:52:00,75.3,72.2,29.88,SW,229,0.0,0.0,90,0.00,,---,0.00,VWS V14.01,2013-09-03 05:52:00,
2013-09-03 01:57:00,75.3,72.2,29.88,SW,217,0.0,2.0,90,0.00,,---,0.00,VWS V14.01,2013-09-03 05:57:00,
2013-09-03 02:02:00,75.2,72.1,29.88,WSW,252,0.0,2.0,90,0.00,,---,0.00,VWS V14.01,2013-09-03 06:02:00,
2013-09-03 02:07:00,75.2,72.1,29.88,WSW,252,0.0,2.0,90,0.00,,---,0.00,VWS V14.01,2013-09-03 06:07:00,
2013-09-03 02:12:00,75.2,72.1,29.88,WSW,239,0.0,2.0,90,0.00,,---,0.00,VWS V14.01,2013-09-03 06:12:00,
2013-09-03 02:17:00,75.2,72.1,29.88,SW,235,0.0,1.0,90,0.00,,---,0.00,VWS V14.01,2013-09-03 06:17:00,
2013-09-03 02:22:00,75.1,72.0,29.88,SSE,150,1.0,3.0,90,0.00,,---,0.00,VWS V14.01,2013-09-03 06:22:00,
2013-09-03 02:27:00,75.1,72.0,29.88,South,188,0.0,4.0,90,0.00,,---,0.00,VWS V14.01,2013-09-03 06:27:00,
2013-09-03 02:33:00,75.0,71.9,29.87,South,188,1.0,3.0,90,0.00,,---,0.00,VWS V14.01,2013-09-03 06:33:00,
2013-09-03 02:38:00,74.9,71.8,29.87,South,178,1.0,3.0,90,0.00,,---,0.00,VWS V14.01,2013-09-03 06:38:00,
2013-09-03 02:43:00,74.8,71.7,29.87,SW,233,0.0,3.0,90,0.00,,---,0.00,VWS V14.01,2013-09-03 06:43:00,
2013-09-03 02:48:00,74.7,71.6,29.87,WSW,238,2.0,3.0,90,0.00,,---,0.00,VWS V14.01,2013-09-03 06:48:00,
2013-09-03 02:53:00,74.7,71.6,29.87,South,175,2.0,3.0,90,0.00,,---,0.00,VWS V14.01,2013-09-03 06:53:00,
2013-09-03 02:58:00,74.6,71.8,29.87,SW,214,0.0,5.0,91,0.00,,---,0.00,VWS V14.01,2013-09-03 06:58:00,
2013-09-03 03:03:00,74.6,71.8,29.87,SSW,213,1.0,4.0,91,0.00,,---,0.00,VWS V14.01,2013-09-03 07:03:00,
2013-09-03 03:08:00,74.6,71.8,29.87,SW,229,0.0,4.0,91,0.00,,---,0.00,VWS V14.01,2013-09-03 07:08:00,
2013-09-03 03:13:00,74.4,71.6,29.87,SW,230,0.0,4.0,91,0.00,,---,0.00,VWS V14.01,2013-09-03 07:13:00,
2013-09-03 03:18:00,74.3,71.5,29.87,SSW,210,0.0,3.0,91,0.00,,---,0.00,VWS V14.01,2013-09-03 07:18:00,
2013-09-03 03:23:00,74.2,71.4,29.87,WSW,237,0.0,4.0,91,0.00,,---,0.00,VWS V14.01,2013-09-03 07:23:00,
2013-09-03 03:28:00,74.1,71.3,29.87,WSW,253,0.0,4.0,91,0.00,,---,0.00,VWS V14.01,2013-09-03 07:28:00,
2013-09-03 03:33:00,73.9,71.1,29.87,WSW,240,0.0,1.0,91,0.00,,---,0.00,VWS V14.01,2013-09-03 07:33:00,
2013-09-03 03:38:00,73.7,71.2,29.87,WSW,248,0.0,2.0,92,0.00,,---,0.00,VWS V14.01,2013-09-03 07:38:00,
2013-09-03 03:43:00,73.7,71.2,29.86,SW,215,1.0,3.0,92,0.00,,---,0.00,VWS V14.01,2013-09-03 07:43:00,
2013-09-03 03:49:00,73.5,71.0,29.86,SSW,202,0.0,2.0,92,0.00,,---,0.00,VWS V14.01,2013-09-03 07:49:00,
2013-09-03 03:54:00,73.5,71.4,29.86,South,169,2.0,4.0,93,0.00,,---,0.00,VWS V14.01,2013-09-03 07:54:00,
2013-09-03 03:59:00,73.4,71.3,29.86,SSW,203,3.0,4.0,93,0.00,,---,0.00,VWS V14.01,2013-09-03 07:59:00,
2013-09-03 04:04:00,73.3,71.2,29.86,SW,225,2.0,3.0,93,0.00,,---,0.00,VWS V14.01,2013-09-03 08:04:00,
2013-09-03 04:09:00,73.1,71.0,29.87,WSW,245,0.0,3.0,93,0.00,,---,0.00,VWS V14.01,2013-09-03 08:09:00,
2013-09-03 04:14:00,73.1,71.0,29.86,WSW,245,0.0,3.0,93,0.00,,---,0.00,VWS V14.01,2013-09-03 08:14:00,
2013-09-03 04:19:00,73.0,70.9,29.86,WSW,245,0.0,1.0,93,0.00,,---,0.00,VWS V14.01,2013-09-03 08:19:00,
2013-09-03 04:24:00,72.9,70.8,29.86,WSW,245,0.0,1.0,93,0.00,,---,0.00,VWS V14.01,2013-09-03 08:24:00,
2013-09-03 04:29:00,72.9,71.1,29.86,WSW,245,0.0,2.0,94,0.00,,---,0.00,VWS V14.01,2013-09-03 08:29:00,
2013-09-03 04:34:00,72.8,71.0,29.86,WSW,245,0.0,1.0,94,0.00,,---,0.00,VWS V14.01,2013-09-03 08:34:00,
2013-09-03 04:39:00,72.7,70.9,29.86,WSW,245,0.0,1.0,94,0.00,,---,0.00,VWS V14.01,2013-09-03 08:39:00,
2013-09-03 04:44:00,72.6,70.8,29.86,West,259,0.0,1.0,94,0.00,,---,0.00,VWS V14.01,2013-09-03 08:44:00,
2013-09-03 04:49:00,72.6,70.8,29.86,West,261,1.0,1.0,94,0.00,,---,0.00,VWS V14.01,2013-09-03 08:49:00,
2013-09-03 04:54:00,72.6,70.8,29.86,WNW,296,3.0,3.0,94,0.00,,---,0.00,VWS V14.01,2013-09-03 08:54:00,
2013-09-03 05:00:00,72.6,70.8,29.86,WNW,300,0.0,3.0,94,0.00,,---,0.00,VWS V14.01,2013-09-03 09:00:00,
2013-09-03 05:05:00,72.6,70.8,29.86,SSW,192,0.0,3.0,94,0.00,,---,0.00,VWS V14.01,2013-09-03 09:05:00,
2013-09-03 05:10:00,72.6,70.8,29.86,WSW,237,0.0,3.0,94,0.00,,---,0.00,VWS V14.01,2013-09-03 09:10:00,
2013-09-03 05:15:00,72.5,70.7,29.86,WSW,257,0.0,3.0,94,0.00,,---,0.00,VWS V14.01,2013-09-03 09:15:00,
2013-09-03 05:20:00,72.5,70.7,29.86,West,259,0.0,2.0,94,0.00,,---,0.00,VWS V14.01,2013-09-03 09:20:00,
2013-09-03 05:25:00,72.5,70.7,29.86,WSW,254,0.0,2.0,94,0.00,,---,0.00,VWS V14.01,2013-09-03 09:25:00,
2013-09-03 05:30:00,72.4,70.6,29.86,WSW,251,0.0,2.0,94,0.00,,---,0.00,VWS V14.01,2013-09-03 09:30:00,
2013-09-03 05:35:00,72.4,70.6,29.86,West,270,0.0,1.0,94,0.00,,---,0.00,VWS V14.01,2013-09-03 09:35:00,
2013-09-03 05:40:00,72.3,70.5,29.86,SW,231,0.0,2.0,94,0.00,,---,0.00,VWS V14.01,2013-09-03 09:40:00,
2013-09-03 05:45:00,72.3,70.5,29.86,SW,231,0.0,1.0,94,0.00,,---,0.00,VWS V14.01,2013-09-03 09:45:00,
2013-09-03 05:50:00,72.3,70.5,29.86,SW,231,0.0,1.0,94,0.00,,---,0.00,VWS V14.01,2013-09-03 09:50:00,
2013-09-03 05:55:00,72.2,70.7,29.86,SW,229,0.0,2.0,95,0.00,,---,0.00,VWS V14.01,2013-09-03 09:55:00,
2013-09-03 06:00:00,72.1,70.6,29.86,SW,229,0.0,0.0,95,0.00,,---,0.00,VWS V14.01,2013-09-03 10:00:00,
2013-09-03 06:05:00,72.0,70.2,29.86,West,275,0.0,2.0,94,0.00,,---,0.00,VWS V14.01,2013-09-03 10:05:00,
2013-09-03 06:10:00,72.0,70.5,29.85,WSW,244,0.0,2.0,95,0.00,,---,0.00,VWS V14.01,2013-09-03 10:10:00,
2013-09-03 06:16:00,72.1,70.6,29.85,South,175,1.0,4.0,95,0.00,,---,0.00,VWS V14.01,2013-09-03 10:16:00,
2013-09-03 06:21:00,72.1,70.6,29.85,SW,232,0.0,4.0,95,0.00,,---,0.00,VWS V14.01,2013-09-03 10:21:00,
2013-09-03 06:26:00,72.1,70.6,29.86,WSW,246,1.0,5.0,95,0.00,,---,0.00,VWS V14.01,2013-09-03 10:26:00,
2013-09-03 06:31:00,72.1,70.6,29.85,SSW,201,0.0,2.0,95,0.00,,---,0.00,VWS V14.01,2013-09-03 10:31:00,
2013-09-03 06:36:00,72.1,70.6,29.86,SSW,201,0.0,4.0,95,0.00,,---,0.00,VWS V14.01,2013-09-03 10:36:00,
2013-09-03 06:41:00,72.1,70.6,29.86,SSW,203,1.0,4.0,95,0.00,,---,0.00,VWS V14.01,2013-09-03 10:41:00,
2013-09-03 06:46:00,72.2,70.7,29.86,SW,226,0.0,3.0,95,0.00,,---,0.00,VWS V14.01,2013-09-03 10:46:00,
2013-09-03 06:51:00,72.2,70.7,29.86,SSE,165,0.0,5.0,95,0.00,,---,0.00,VWS V14.01,2013-09-03 10:51:00,
2013-09-03 06:56:00,72.2,70.7,29.87,West,259,0.0,5.0,95,0.00,,---,0.00,VWS V14.01,2013-09-03 10:56:00,
2013-09-03 07:01:00,72.2,70.7,29.87,SSE,163,0.0,3.0,95,0.00,,---,0.00,VWS V14.01,2013-09-03 11:01:00,
2013-09-03 07:06:00,72.3,70.8,29.87,SSW,209,0.0,4.0,95,0.00,,---,0.00,VWS V14.01,2013-09-03 11:06:00,
2013-09-03 07:11:00,72.3,70.8,29.87,SW,227,1.0,4.0,95,0.00,,---,0.00,VWS V14.01,2013-09-03 11:11:00,
2013-09-03 07:16:00,72.4,70.9,29.88,SSW,200,1.0,1.0,95,0.00,,---,0.00,VWS V14.01,2013-09-03 11:16:00,
2013-09-03 07:21:00,72.4,70.9,29.88,WSW,238,0.0,2.0,95,0.00,,---,0.00,VWS V14.01,2013-09-03 11:21:00,
2013-09-03 07:26:00,72.4,70.9,29.89,WNW,297,0.0,3.0,95,0.00,,---,0.00,VWS V14.01,2013-09-03 11:26:00,
2013-09-03 07:32:00,72.4,70.9,29.89,WNW,292,1.0,2.0,95,0.00,,---,0.00,VWS V14.01,2013-09-03 11:32:00,
2013-09-03 07:37:00,72.4,70.9,29.89,WSW,242,1.0,3.0,95,0.00,,---,0.00,VWS V14.01,2013-09-03 11:37:00,
2013-09-03 07:42:00,72.4,70.9,29.89,West,260,0.0,3.0,95,0.00,,---,0.00,VWS V14.01,2013-09-03 11:42:00,
2013-09-03 07:47:00,72.5,71.0,29.90,SW,227,0.0,2.0,95,0.00,,---,0.00,VWS V14.01,2013-09-03 11:47:00,
2013-09-03 07:52:00,72.5,71.0,29.90,SW,225,0.0,5.0,95,0.00,,---,0.00,VWS V14.01,2013-09-03 11:52:00,
2013-09-03 07:57:00,72.5,71.0,29.89,SSW,208,0.0,5.0,95,0.00,,---,0.00,VWS V14.01,2013-09-03 11:57:00,
2013-09-03 08:02:00,72.7,71.2,29.90,WSW,245,1.0,1.0,95,0.00,,---,0.00,VWS V14.01,2013-09-03 12:02:00,
2013-09-03 08:07:00,72.8,71.3,29.90,NW,305,0.0,3.0,95,0.00,,---,0.00,VWS V14.01,2013-09-03 12:07:00,
2013-09-03 08:12:00,72.8,71.3,29.90,SW,220,0.0,3.0,95,0.00,,---,0.00,VWS V14.01,2013-09-03 12:12:00,
2013-09-03 08:17:00,72.9,71.4,29.90,SW,221,0.0,1.0,95,0.00,,---,0.00,VWS V14.01,2013-09-03 12:17:00,
2013-09-03 08:22:00,72.9,71.4,29.91,WNW,285,0.0,4.0,95,0.00,,---,0.00,VWS V14.01,2013-09-03 12:22:00,
2013-09-03 08:27:00,72.9,71.4,29.90,SW,219,0.0,5.0,95,0.00,,---,0.00,VWS V14.01,2013-09-03 12:27:00,
2013-09-03 08:32:00,73.1,71.6,29.90,WSW,248,0.0,2.0,95,0.00,,---,0.00,VWS V14.01,2013-09-03 12:32:00,
2013-09-03 08:38:00,73.2,71.7,29.91,SSW,206,1.0,4.0,95,0.00,,---,0.00,VWS V14.01,2013-09-03 12:38:00,
2013-09-03 08:43:00,73.1,71.6,29.90,SW,214,4.0,6.0,95,0.00,,---,0.00,VWS V14.01,2013-09-03 12:43:00,
2013-09-03 08:48:00,73.2,71.7,29.91,WSW,240,1.0,4.0,95,0.00,,---,0.00,VWS V14.01,2013-09-03 12:48:00,
2013-09-03 08:53:00,73.3,71.8,29.90,SW,221,2.0,4.0,95,0.00,,---,0.00,VWS V14.01,2013-09-03 12:53:00,
2013-09-03 08:58:00,73.2,71.7,29.90,SW,219,0.0,5.0,95,0.00,,---,0.00,VWS V14.01,2013-09-03 12:58:00,
2013-09-03 09:03:00,73.4,71.9,29.90,South,178,0.0,2.0,95,0.00,,---,0.00,VWS V14.01,2013-09-03 13:03:00,
2013-09-03 09:08:00,73.6,72.1,29.91,WNW,286,1.0,4.0,95,0.00,,---,0.00,VWS V14.01,2013-09-03 13:08:00,
2013-09-03 09:13:00,73.7,71.9,29.91,West,267,0.0,4.0,94,0.00,,---,0.00,VWS V14.01,2013-09-03 13:13:00,
2013-09-03 09:18:00,73.7,71.9,29.91,West,268,0.0,4.0,94,0.00,,---,0.00,VWS V14.01,2013-09-03 13:18:00,
2013-09-03 09:23:00,73.7,71.9,29.91,NW,304,0.0,4.0,94,0.00,,---,0.00,VWS V14.01,2013-09-03 13:23:00,
2013-09-03 09:29:00,73.6,71.8,29.92,West,281,1.0,4.0,94,0.00,,---,0.00,VWS V14.01,2013-09-03 13:29:00,
2013-09-03 09:34:00,73.9,72.1,29.92,West,269,0.0,2.0,94,0.00,,---,0.00,VWS V14.01,2013-09-03 13:34:00,
2013-09-03 09:39:00,74.2,72.4,29.92,NW,312,0.0,3.0,94,0.00,,---,0.00,VWS V14.01,2013-09-03 13:39:00,
2013-09-03 09:44:00,74.8,72.6,29.92,WSW,252,1.0,3.0,93,0.00,,---,0.00,VWS V14.01,2013-09-03 13:44:00,
2013-09-03 09:49:00,75.0,72.5,29.92,WSW,251,0.0,1.0,92,0.00,,---,0.00,VWS V14.01,2013-09-03 13:49:00,
2013-09-03 09:54:00,75.4,72.9,29.92,WNW,294,0.0,2.0,92,0.00,,---,0.00,VWS V14.01,2013-09-03 13:54:00,
2013-09-03 09:59:00,75.9,73.1,29.92,NW,315,2.0,2.0,91,0.00,,---,0.00,VWS V14.01,2013-09-03 13:59:00,
2013-09-03 10:04:00,76.7,73.6,29.92,NNW,334,0.0,5.0,90,0.00,,---,0.00,VWS V14.01,2013-09-03 14:04:00,
2013-09-03 10:09:00,77.3,73.5,29.93,North,360,0.0,5.0,88,0.00,,---,0.00,VWS V14.01,2013-09-03 14:09:00,
2013-09-03 10:14:00,78.0,74.2,29.93,NNW,334,2.0,5.0,88,0.00,,---,0.00,VWS V14.01,2013-09-03 14:14:00,
2013-09-03 10:19:00,78.1,73.9,29.93,NW,319,0.0,3.0,87,0.00,,---,0.00,VWS V14.01,2013-09-03 14:19:00,
2013-09-03 10:24:00,78.5,74.7,29.93,NW,323,0.0,3.0,88,0.00,,---,0.00,VWS V14.01,2013-09-03 14:24:00,
2013-09-03 10:29:00,79.6,75.1,29.93,NNW,340,2.0,4.0,86,0.00,,---,0.00,VWS V14.01,2013-09-03 14:29:00,
2013-09-03 10:34:00,80.0,74.4,29.93,NW,307,0.0,4.0,83,0.00,,---,0.00,VWS V14.01,2013-09-03 14:34:00,
2013-09-03 10:39:00,79.0,73.4,29.93,ESE,118,0.0,4.0,83,0.00,,---,0.00,VWS V14.01,2013-09-03 14:39:00,
2013-09-03 10:44:00,78.9,73.7,29.93,East,96,0.0,4.0,84,0.00,,---,0.00,VWS V14.01,2013-09-03 14:44:00,
2013-09-03 10:50:00,79.4,74.5,29.92,East,85,0.0,3.0,85,0.00,,---,0.00,VWS V14.01,2013-09-03 14:50:00,
2013-09-03 10:55:00,79.9,74.6,29.92,ESE,102,0.0,3.0,84,0.00,,---,0.00,VWS V14.01,2013-09-03 14:55:00,
2013-09-03 11:00:00,80.8,75.2,29.92,ESE,117,2.0,3.0,83,0.00,,---,0.00,VWS V14.01,2013-09-03 15:00:00,
2013-09-03 11:05:00,81.6,75.2,29.92,NE,54,0.0,4.0,81,0.00,,---,0.00,VWS V14.01,2013-09-03 15:05:00,
2013-09-03 11:10:00,81.2,75.2,29.92,East,89,0.0,4.0,82,0.00,,---,0.00,VWS V14.01,2013-09-03 15:10:00,
2013-09-03 11:15:00,82.2,75.8,29.92,West,273,1.0,4.0,81,0.00,,---,0.00,VWS V14.01,2013-09-03 15:15:00,
2013-09-03 11:20:00,82.9,75.7,29.92,WNW,294,2.0,2.0,79,0.00,,---,0.00,VWS V14.01,2013-09-03 15:20:00,
2013-09-03 11:25:00,83.4,74.2,29.92,NE,47,1.0,3.0,74,0.00,,---,0.00,VWS V14.01,2013-09-03 15:25:00,
2013-09-03 11:30:00,82.9,77.2,29.92,NE,46,0.0,0.0,83,0.00,,---,0.00,VWS V14.01,2013-09-03 15:30:00,
2013-09-03 11:35:00,83.1,75.5,29.92,SSE,164,1.0,3.0,78,0.00,,---,0.00,VWS V14.01,2013-09-03 15:35:00,
2013-09-03 11:40:00,82.3,75.1,29.92,East,99,1.0,3.0,79,0.00,,---,0.00,VWS V14.01,2013-09-03 15:40:00,
2013-09-03 11:45:00,82.2,74.7,29.92,ESE,112,0.0,1.0,78,0.00,,---,0.00,VWS V14.01,2013-09-03 15:45:00,
2013-09-03 11:51:00,82.3,75.1,29.92,NNE,27,1.0,2.0,79,0.00,,---,0.00,VWS V14.01,2013-09-03 15:51:00,
2013-09-03 11:56:00,84.0,75.2,29.92,NNE,30,0.0,2.0,75,0.00,,---,0.00,VWS V14.01,2013-09-03 15:56:00,
2013-09-03 12:01:00,83.9,74.7,29.92,South,173,0.0,1.0,74,0.00,,---,0.00,VWS V14.01,2013-09-03 16:01:00,
2013-09-03 12:06:00,84.0,74.0,29.92,NW,312,3.0,4.0,72,0.00,,---,0.00,VWS V14.01,2013-09-03 16:06:00,
2013-09-03 12:11:00,84.5,75.7,29.92,NW,313,1.0,4.0,75,0.00,,---,0.00,VWS V14.01,2013-09-03 16:11:00,
2013-09-03 12:16:00,86.0,76.3,29.92,NNE,18,3.0,3.0,73,0.00,,---,0.00,VWS V14.01,2013-09-03 16:16:00,
2013-09-03 12:21:00,87.4,75.6,29.92,NNE,15,2.0,4.0,68,0.00,,---,0.00,VWS V14.01,2013-09-03 16:21:00,
2013-09-03 12:26:00,85.8,74.9,29.92,NE,51,0.0,4.0,70,0.00,,---,0.00,VWS V14.01,2013-09-03 16:26:00,
2013-09-03 12:31:00,85.5,74.2,29.92,ENE,59,0.0,1.0,69,0.00,,---,0.00,VWS V14.01,2013-09-03 16:31:00,
2013-09-03 12:36:00,85.6,74.3,29.92,ENE,59,0.0,2.0,69,0.00,,---,0.00,VWS V14.01,2013-09-03 16:36:00,
2013-09-03 12:41:00,85.9,75.4,29.92,North,5,1.0,4.0,71,0.00,,---,0.00,VWS V14.01,2013-09-03 16:41:00,
2013-09-03 12:46:00,86.3,74.5,29.92,NW,321,2.0,3.0,68,0.00,,---,0.00,VWS V14.01,2013-09-03 16:46:00,
2013-09-03 12:51:00,86.1,76.0,29.92,NE,38,1.0,5.0,72,0.00,,---,0.00,VWS V14.01,2013-09-03 16:51:00,
2013-09-03 12:57:00,85.7,74.8,29.91,NNE,24,2.0,5.0,70,0.00,,---,0.00,VWS V14.01,2013-09-03 16:57:00,
2013-09-03 13:02:00,85.3,74.8,29.92,North,355,1.0,1.0,71,0.00,,---,0.00,VWS V14.01,2013-09-03 17:02:00,
2013-09-03 13:07:00,85.4,74.5,29.91,North,351,0.0,2.0,70,0.00,,---,0.00,VWS V14.01,2013-09-03 17:07:00,
2013-09-03 13:12:00,85.4,75.8,29.91,NNE,14,0.0,2.0,73,0.00,,---,0.00,VWS V14.01,2013-09-03 17:12:00,
2013-09-03 13:17:00,86.5,76.8,29.91,NE,42,0.0,2.0,73,0.00,,---,0.00,VWS V14.01,2013-09-03 17:17:00,
2013-09-03 13:22:00,86.8,75.8,29.91,NNW,344,1.0,3.0,70,0.00,,---,0.00,VWS V14.01,2013-09-03 17:22:00,
2013-09-03 13:27:00,87.5,76.1,29.91,NNW,344,2.0,4.0,69,0.00,,---,0.00,VWS V14.01,2013-09-03 17:27:00,
2013-09-03 13:32:00,87.9,76.0,29.91,NNE,22,2.0,3.0,68,0.00,,---,0.00,VWS V14.01,2013-09-03 17:32:00,
2013-09-03 13:37:00,87.3,76.8,29.91,ESE,102,1.0,3.0,71,0.00,,---,0.00,VWS V14.01,2013-09-03 17:37:00,
2013-09-03 13:42:00,86.0,73.3,29.90,SE,140,0.0,3.0,66,0.00,,---,0.00,VWS V14.01,2013-09-03 17:42:00,
2013-09-03 13:47:00,86.5,74.7,29.90,ESE,105,0.0,1.0,68,0.00,,---,0.00,VWS V14.01,2013-09-03 17:47:00,
2013-09-03 13:53:00,87.5,72.9,29.90,SW,234,1.0,4.0,62,0.00,,---,0.00,VWS V14.01,2013-09-03 17:53:00,
2013-09-03 13:58:00,88.4,75.1,29.90,NW,316,2.0,4.0,65,0.00,,---,0.00,VWS V14.01,2013-09-03 17:58:00,
2013-09-03 14:03:00,88.7,74.0,29.90,WNW,294,0.0,5.0,62,0.00,,---,0.00,VWS V14.01,2013-09-03 18:03:00,
2013-09-03 14:08:00,89.5,73.3,29.90,NW,317,2.0,5.0,59,0.00,,---,0.00,VWS V14.01,2013-09-03 18:08:00,
2013-09-03 14:13:00,88.4,73.7,29.90,North,9,2.0,7.0,62,0.00,,---,0.00,VWS V14.01,2013-09-03 18:13:00,
2013-09-03 14:18:00,87.3,73.2,29.90,NNE,25,0.0,3.0,63,0.00,,---,0.00,VWS V14.01,2013-09-03 18:18:00,
2013-09-03 14:23:00,87.7,74.0,29.90,NW,311,1.0,3.0,64,0.00,,---,0.00,VWS V14.01,2013-09-03 18:23:00,
2013-09-03 14:28:00,88.4,73.2,29.90,West,260,0.0,3.0,61,0.00,,---,0.00,VWS V14.01,2013-09-03 18:28:00,
2013-09-03 14:33:00,88.2,75.0,29.90,SW,234,0.0,2.0,65,0.00,,---,0.00,VWS V14.01,2013-09-03 18:33:00,
2013-09-03 14:38:00,88.1,73.4,29.89,SE,134,1.0,3.0,62,0.00,,---,0.00,VWS V14.01,2013-09-03 18:38:00,
2013-09-03 14:43:00,87.2,72.1,29.89,SW,220,1.0,3.0,61,0.00,,---,0.00,VWS V14.01,2013-09-03 18:43:00,
2013-09-03 14:48:00,87.5,72.9,29.89,SSE,164,1.0,3.0,62,0.00,,---,0.00,VWS V14.01,2013-09-03 18:48:00,
2013-09-03 14:53:00,87.3,73.2,29.88,SSE,168,0.0,3.0,63,0.00,,---,0.00,VWS V14.01,2013-09-03 18:53:00,
2013-09-03 14:59:00,87.5,74.3,29.88,North,5,1.0,3.0,65,0.00,,---,0.00,VWS V14.01,2013-09-03 18:59:00,
2013-09-03 15:04:00,86.4,73.7,29.88,NW,323,1.0,5.0,66,0.00,,---,0.00,VWS V14.01,2013-09-03 19:04:00,
2013-09-03 15:09:00,85.4,73.6,29.88,NNW,330,2.0,5.0,68,0.00,,---,0.00,VWS V14.01,2013-09-03 19:09:00,
2013-09-03 15:14:00,86.7,74.9,29.88,NW,315,4.0,5.0,68,0.00,,---,0.00,VWS V14.01,2013-09-03 19:14:00,
2013-09-03 15:19:00,87.6,73.0,29.88,NE,50,0.0,3.0,62,0.00,,---,0.00,VWS V14.01,2013-09-03 19:19:00,
2013-09-03 15:24:00,87.5,73.8,29.88,NW,313,1.0,5.0,64,0.00,,---,0.00,VWS V14.01,2013-09-03 19:24:00,
2013-09-03 15:29:00,86.4,73.2,29.88,NNW,342,1.0,7.0,65,0.00,,---,0.00,VWS V14.01,2013-09-03 19:29:00,
2013-09-03 15:34:00,86.0,72.4,29.88,NNE,13,1.0,3.0,64,0.00,,---,0.00,VWS V14.01,2013-09-03 19:34:00,
2013-09-03 15:39:00,87.3,73.2,29.88,NNW,336,1.0,3.0,63,0.00,,---,0.00,VWS V14.01,2013-09-03 19:39:00,
2013-09-03 15:44:00,88.6,74.9,29.88,North,5,0.0,5.0,64,0.00,,---,0.00,VWS V14.01,2013-09-03 19:44:00,
2013-09-03 15:50:00,89.2,72.0,29.88,NNW,336,2.0,9.0,57,0.00,,---,0.00,VWS V14.01,2013-09-03 19:50:00,
2013-09-03 15:55:00,89.3,73.1,29.87,North,355,0.0,9.0,59,0.00,,---,0.00,VWS V14.01,2013-09-03 19:55:00,
2013-09-03 16:00:00,90.1,74.3,29.87,NNW,342,4.0,9.0,60,0.00,,---,0.00,VWS V14.01,2013-09-03 20:00:00,
2013-09-03 16:05:00,89.8,72.6,29.87,NW,323,1.0,5.0,57,0.00,,---,0.00,VWS V14.01,2013-09-03 20:05:00,
2013-09-03 16:10:00,89.6,72.9,29.87,NW,308,2.0,5.0,58,0.00,,---,0.00,VWS V14.01,2013-09-03 20:10:00,
2013-09-03 16:15:00,89.4,71.1,29.87,North,360,3.0,9.0,55,0.00,,---,0.00,VWS V14.01,2013-09-03 20:15:00,
2013-09-03 16:20:00,88.6,69.8,29.87,NW,326,2.0,7.0,54,0.00,,---,0.00,VWS V14.01,2013-09-03 20:20:00,
2013-09-03 16:25:00,88.6,69.8,29.87,NNW,344,5.0,7.0,54,0.00,,---,0.00,VWS V14.01,2013-09-03 20:25:00,
2013-09-03 16:30:00,88.5,70.3,29.87,NNE,15,1.0,3.0,55,0.00,,---,0.00,VWS V14.01,2013-09-03 20:30:00,
2013-09-03 16:35:00,88.6,70.9,29.87,NNE,28,1.0,6.0,56,0.00,,---,0.00,VWS V14.01,2013-09-03 20:35:00,
2013-09-03 16:41:00,88.8,72.1,29.87,NW,323,3.0,6.0,58,0.00,,---,0.00,VWS V14.01,2013-09-03 20:41:00,
2013-09-03 16:46:00,88.7,70.5,29.87,NNW,331,0.0,3.0,55,0.00,,---,0.00,VWS V14.01,2013-09-03 20:46:00,
2013-09-03 16:51:00,88.6,70.4,29.87,North,5,5.0,7.0,55,0.00,,---,0.00,VWS V14.01,2013-09-03 20:51:00,
2013-09-03 16:56:00,88.2,70.5,29.87,NNW,337,2.0,7.0,56,0.00,,---,0.00,VWS V14.01,2013-09-03 20:56:00,
2013-09-03 17:01:00,88.1,70.4,29.87,North,355,3.0,5.0,56,0.00,,---,0.00,VWS V14.01,2013-09-03 21:01:00,
2013-09-03 17:06:00,87.8,70.2,29.87,NW,317,2.0,10.0,56,0.00,,---,0.00,VWS V14.01,2013-09-03 21:06:00,
2013-09-03 17:11:00,87.5,70.4,29.87,NW,321,2.0,10.0,57,0.00,,---,0.00,VWS V14.01,2013-09-03 21:11:00,
2013-09-03 17:16:00,87.5,69.9,29.87,NW,325,4.0,6.0,56,0.00,,---,0.00,VWS V14.01,2013-09-03 21:16:00,
2013-09-03 17:21:00,87.4,69.8,29.87,NNW,333,4.0,9.0,56,0.00,,---,0.00,VWS V14.01,2013-09-03 21:21:00,
2013-09-03 17:26:00,87.2,69.1,29.88,WNW,302,5.0,9.0,55,0.00,,---,0.00,VWS V14.01,2013-09-03 21:26:00,
2013-09-03 17:32:00,87.0,69.4,29.87,North,9,2.0,8.0,56,0.00,,---,0.00,VWS V14.01,2013-09-03 21:32:00,
2013-09-03 17:37:00,87.0,69.4,29.88,North,349,1.0,8.0,56,0.00,,---,0.00,VWS V14.01,2013-09-03 21:37:00,
2013-09-03 17:42:00,86.8,69.8,29.88,NNW,346,2.0,8.0,57,0.00,,---,0.00,VWS V14.01,2013-09-03 21:42:00,
2013-09-03 17:47:00,86.7,69.7,29.88,North,355,0.0,5.0,57,0.00,,---,0.00,VWS V14.01,2013-09-03 21:47:00,
2013-09-03 17:52:00,86.6,70.1,29.88,North,355,1.0,5.0,58,0.00,,---,0.00,VWS V14.01,2013-09-03 21:52:00,
2013-09-03 17:57:00,86.3,70.3,29.88,NW,321,0.0,5.0,59,0.00,,---,0.00,VWS V14.01,2013-09-03 21:57:00,
2013-09-03 18:02:00,86.2,69.2,29.88,NNW,339,2.0,4.0,57,0.00,,---,0.00,VWS V14.01,2013-09-03 22:02:00,
2013-09-03 18:07:00,86.0,69.5,29.88,NW,323,3.0,5.0,58,0.00,,---,0.00,VWS V14.01,2013-09-03 22:07:00,
2013-09-03 18:13:00,85.9,69.9,29.88,NW,304,2.0,5.0,59,0.00,,---,0.00,VWS V14.01,2013-09-03 22:13:00,
2013-09-03 18:18:00,85.8,70.3,29.89,North,11,2.0,3.0,60,0.00,,---,0.00,VWS V14.01,2013-09-03 22:18:00,
2013-09-03 18:23:00,85.7,69.7,29.89,NW,320,0.0,3.0,59,0.00,,---,0.00,VWS V14.01,2013-09-03 22:23:00,
2013-09-03 18:28:00,85.5,71.0,29.89,NNW,333,0.0,4.0,62,0.00,,---,0.00,VWS V14.01,2013-09-03 22:28:00,
2013-09-03 18:33:00,85.2,69.8,29.89,NNW,344,2.0,3.0,60,0.00,,---,0.00,VWS V14.01,2013-09-03 22:33:00,
2013-09-03 18:38:00,85.0,70.1,29.89,NNW,328,1.0,5.0,61,0.00,,---,0.00,VWS V14.01,2013-09-03 22:38:00,
2013-09-03 18:44:00,84.8,70.8,29.89,NNW,329,0.0,5.0,63,0.00,,---,0.00,VWS V14.01,2013-09-03 22:44:00,
2013-09-03 18:49:00,84.5,70.5,29.89,NNW,329,0.0,2.0,63,0.00,,---,0.00,VWS V14.01,2013-09-03 22:49:00,
2013-09-03 18:54:00,84.3,71.3,29.89,NNW,328,0.0,2.0,65,0.00,,---,0.00,VWS V14.01,2013-09-03 22:54:00,
2013-09-03 18:59:00,84.0,72.3,29.90,NNW,329,0.0,2.0,68,0.00,,---,0.00,VWS V14.01,2013-09-03 22:59:00,
2013-09-03 19:04:00,83.3,72.9,29.90,NNW,328,0.0,0.0,71,0.00,,---,0.00,VWS V14.01,2013-09-03 23:04:00,
2013-09-03 19:10:00,82.8,72.4,29.90,NNW,329,0.0,1.0,71,0.00,,---,0.00,VWS V14.01,2013-09-03 23:10:00,
2013-09-03 19:15:00,82.4,72.5,29.90,NNW,329,0.0,1.0,72,0.00,,---,0.00,VWS V14.01,2013-09-03 23:15:00,
2013-09-03 19:20:00,81.9,72.8,29.90,NNW,329,0.0,1.0,74,0.00,,---,0.00,VWS V14.01,2013-09-03 23:20:00,
2013-09-03 19:25:00,81.4,72.3,29.90,NNW,329,0.0,1.0,74,0.00,,---,0.00,VWS V14.01,2013-09-03 23:25:00,
2013-09-03 19:30:00,80.6,72.3,29.90,NNW,329,0.0,0.0,76,0.00,,---,0.00,VWS V14.01,2013-09-03 23:30:00,
2013-09-03 19:35:00,80.0,72.2,29.91,NNW,329,0.0,0.0,77,0.00,,---,0.00,VWS V14.01,2013-09-03 23:35:00,
2013-09-03 19:41:00,79.6,71.8,29.91,NNW,329,0.0,0.0,77,0.00,,---,0.00,VWS V14.01,2013-09-03 23:41:00,
2013-09-03 19:46:00,79.1,71.3,29.91,NNW,329,0.0,0.0,77,0.00,,---,0.00,VWS V14.01,2013-09-03 23:46:00,
2013-09-03 19:51:00,78.3,71.3,29.91,NNW,329,0.0,0.0,79,0.00,,---,0.00,VWS V14.01,2013-09-03 23:51:00,
2013-09-03 19:56:00,77.7,71.4,29.92,NNW,329,0.0,0.0,81,0.00,,---,0.00,VWS V14.01,2013-09-03 23:56:00,
2013-09-03 20:01:00,77.3,71.0,29.92,NNW,329,0.0,0.0,81,0.00,,---,0.00,VWS V14.01,2013-09-04 00:01:00,
2013-09-03 20:06:00,76.9,70.6,29.92,NNW,329,0.0,0.0,81,0.00,,---,0.00,VWS V14.01,2013-09-04 00:06:00,
2013-09-03 20:11:00,76.3,70.4,29.92,NNW,329,0.0,0.0,82,0.00,,---,0.00,VWS V14.01,2013-09-04 00:11:00,
2013-09-03 20:16:00,75.8,70.3,29.92,NNW,329,0.0,0.0,83,0.00,,---,0.00,VWS V14.01,2013-09-04 00:16:00,
2013-09-03 20:21:00,75.5,70.0,29.93,NNW,329,0.0,0.0,83,0.00,,---,0.00,VWS V14.01,2013-09-04 00:21:00,
2013-09-03 20:27:00,75.4,70.2,29.93,NNW,328,0.0,0.0,84,0.00,,---,0.00,VWS V14.01,2013-09-04 00:27:00,
2013-09-03 20:32:00,75.0,69.8,29.93,NNW,329,0.0,0.0,84,0.00,,---,0.00,VWS V14.01,2013-09-04 00:32:00,
2013-09-03 20:37:00,74.6,69.8,29.93,NNW,329,0.0,0.0,85,0.00,,---,0.00,VWS V14.01,2013-09-04 00:37:00,
2013-09-03 20:42:00,74.1,69.3,29.94,NNW,329,0.0,0.0,85,0.00,,---,0.00,VWS V14.01,2013-09-04 00:42:00,
2013-09-03 20:47:00,73.8,69.3,29.94,NNW,329,0.0,0.0,86,0.00,,---,0.00,VWS V14.01,2013-09-04 00:47:00,
2013-09-03 20:52:00,73.5,69.1,29.94,NNW,329,0.0,0.0,86,0.00,,---,0.00,VWS V14.01,2013-09-04 00:52:00,
2013-09-03 20:57:00,73.3,69.2,29.94,NNW,329,0.0,0.0,87,0.00,,---,0.00,VWS V14.01,2013-09-04 00:57:00,
2013-09-03 21:02:00,73.1,69.0,29.95,NNW,329,0.0,0.0,87,0.00,,---,0.00,VWS V14.01,2013-09-04 01:02:00,
2013-09-03 21:08:00,73.0,69.2,29.95,NNW,329,0.0,0.0,88,0.00,,---,0.00,VWS V14.01,2013-09-04 01:08:00,
2013-09-03 21:13:00,72.8,69.0,29.95,NNW,329,0.0,0.0,88,0.00,,---,0.00,VWS V14.01,2013-09-04 01:13:00,
2013-09-03 21:18:00,72.6,69.2,29.95,NNW,329,0.0,0.0,89,0.00,,---,0.00,VWS V14.01,2013-09-04 01:18:00,
2013-09-03 21:23:00,72.5,69.1,29.96,NNW,329,0.0,0.0,89,0.00,,---,0.00,VWS V14.01,2013-09-04 01:23:00,
2013-09-03 21:28:00,72.3,68.9,29.96,NNW,329,0.0,0.0,89,0.00,,---,0.00,VWS V14.01,2013-09-04 01:28:00,
2013-09-03 21:34:00,72.2,69.1,29.96,NNW,329,0.0,0.0,90,0.00,,---,0.00,VWS V14.01,2013-09-04 01:34:00,
2013-09-03 21:39:00,72.1,69.0,29.97,NNW,329,0.0,0.0,90,0.00,,---,0.00,VWS V14.01,2013-09-04 01:39:00,
2013-09-03 21:44:00,72.0,68.9,29.97,NNW,329,0.0,0.0,90,0.00,,---,0.00,VWS V14.01,2013-09-04 01:44:00,
2013-09-03 21:49:00,71.8,68.7,29.97,NNW,329,0.0,0.0,90,0.00,,---,0.00,VWS V14.01,2013-09-04 01:49:00,
2013-09-03 21:54:00,71.7,68.6,29.97,NNW,329,0.0,0.0,90,0.00,,---,0.00,VWS V14.01,2013-09-04 01:54:00,
2013-09-03 21:59:00,71.6,68.8,29.97,NNW,329,0.0,0.0,91,0.00,,---,0.00,VWS V14.01,2013-09-04 01:59:00,
2013-09-03 22:04:00,71.4,68.6,29.97,NNW,329,0.0,0.0,91,0.00,,---,0.00,VWS V14.01,2013-09-04 02:04:00,
2013-09-03 22:10:00,71.2,68.4,29.97,NNW,329,0.0,0.0,91,0.00,,---,0.00,VWS V14.01,2013-09-04 02:10:00,
2013-09-03 22:15:00,71.0,68.2,29.97,NNW,329,0.0,0.0,91,0.00,,---,0.00,VWS V14.01,2013-09-04 02:15:00,
2013-09-03 22:20:00,70.8,68.1,29.97,NNW,329,0.0,0.0,91,0.00,,---,0.00,VWS V14.01,2013-09-04 02:20:00,
2013-09-03 22:25:00,70.7,67.9,29.97,NNW,329,0.0,0.0,91,0.00,,---,0.00,VWS V14.01,2013-09-04 02:25:00,
2013-09-03 22:30:00,70.7,67.9,29.97,NNW,329,0.0,0.0,91,0.00,,---,0.00,VWS V14.01,2013-09-04 02:30:00,
2013-09-03 22:35:00,70.5,67.8,29.97,NNW,329,0.0,0.0,91,0.00,,---,0.00,VWS V14.01,2013-09-04 02:35:00,
2013-09-03 22:41:00,70.4,68.0,29.97,NNW,329,0.0,0.0,92,0.00,,---,0.00,VWS V14.01,2013-09-04 02:41:00,
2013-09-03 22:46:00,70.2,67.8,29.97,NNW,329,0.0,0.0,92,0.00,,---,0.00,VWS V14.01,2013-09-04 02:46:00,
2013-09-03 22:51:00,70.1,67.7,29.98,NNW,329,0.0,0.0,92,0.00,,---,0.00,VWS V14.01,2013-09-04 02:51:00,
2013-09-03 22:56:00,70.1,67.7,29.98,NNW,329,0.0,0.0,92,0.00,,---,0.00,VWS V14.01,2013-09-04 02:56:00,
2013-09-03 23:01:00,70.1,68.0,29.98,NNW,329,0.0,0.0,93,0.00,,---,0.00,VWS V14.01,2013-09-04 03:01:00,
2013-09-03 23:06:00,70.0,67.9,29.98,NNW,329,0.0,0.0,93,0.00,,---,0.00,VWS V14.01,2013-09-04 03:06:00,
2013-09-03 23:12:00,70.0,67.9,29.98,NNW,329,0.0,0.0,93,0.00,,---,0.00,VWS V14.01,2013-09-04 03:12:00,
2013-09-03 23:17:00,70.1,68.0,29.99,NNW,329,0.0,0.0,93,0.00,,---,0.00,VWS V14.01,2013-09-04 03:17:00,
2013-09-03 23:22:00,70.0,67.9,29.99,NNW,329,0.0,0.0,93,0.00,,---,0.00,VWS V14.01,2013-09-04 03:22:00,
2013-09-03 23:27:00,69.8,67.7,29.99,NNW,329,0.0,0.0,93,0.00,,---,0.00,VWS V14.01,2013-09-04 03:27:00,
2013-09-03 23:32:00,69.7,67.6,29.99,NNW,329,0.0,1.0,93,0.00,,---,0.00,VWS V14.01,2013-09-04 03:32:00,
2013-09-03 23:38:00,69.9,68.1,29.99,NNW,329,0.0,1.0,94,0.00,,---,0.00,VWS V14.01,2013-09-04 03:38:00,
2013-09-03 23:43:00,69.8,67.7,29.99,NNW,329,0.0,1.0,93,0.00,,---,0.00,VWS V14.01,2013-09-04 03:43:00,
2013-09-03 23:48:00,69.6,67.5,29.99,NNW,329,0.0,1.0,93,0.00,,---,0.00,VWS V14.01,2013-09-04 03:48:00,
2013-09-03 23:53:00,69.5,67.4,30.00,NNW,329,0.0,1.0,93,0.00,,---,0.00,VWS V14.01,2013-09-04 03:53:00,
2013-09-03 23:58:00,69.4,67.3,30.00,NNW,329,0.0,1.0,93,0.00,,---,0.00,VWS V14.01,2013-09-04 03:58:00,